{"data":{"norad_id":69004,"epoch":"2026-09-19T22:29:04.689312Z","epoch_age_seconds":67953,"freshness":"FRESH","line1":"1 69004U 26100AA  26262.93685983  .00002334  00000+0  10955-3 0  9991","line2":"2 69004  97.3908 158.9755 0005771  56.6733 303.5055 15.20613968 21215","mean_motion":15.20613968,"eccentricity":0.0005771,"inclination_deg":97.3908,"raan_deg":158.9755,"arg_perigee_deg":56.6733,"mean_anomaly_deg":303.5055,"bstar":0.00010955,"rev_number":2121,"period_min":94.69859085235,"perigee_km":500.01581697811,"apogee_km":507.95916506564,"semimajor_km":6882.1244910219,"source":"CELESTRAK","updated_at":"2026-09-20T09:00:24.626782Z"}}